Time,TemperatureF,DewpointF,PressureIn,WindDirection,WindDirectionDegrees,WindSpeedMPH,WindSpeedGustMPH,Humidity,HourlyPrecipIn,Conditions,Clouds,dailyrainin,SoftwareType,DateUTC
2013-01-10 00:29:00,29.4,24.6,30.42,NW,306,0.0,-999.0,82,0.00,,,0.00,Wunderground v.1.13,2013-01-10 06:29:00,
2013-01-10 00:59:00,26.7,23.4,30.40,NW,306,0.0,-999.0,87,0.00,,,0.00,Wunderground v.1.13,2013-01-10 06:59:00,
2013-01-10 01:29:00,26.3,23.0,30.41,NW,317,0.0,-999.0,87,0.00,,,0.00,Wunderground v.1.13,2013-01-10 07:29:00,
2013-01-10 01:59:00,24.6,21.6,30.43,NW,316,0.0,-999.0,88,0.00,,,0.00,Wunderground v.1.13,2013-01-10 07:59:00,
2013-01-10 02:29:00,23.8,21.6,30.45,NW,316,0.0,-999.0,91,0.00,,,0.00,Wunderground v.1.13,2013-01-10 08:29:00,
2013-01-10 02:59:00,23.7,21.7,30.47,NW,315,0.0,-999.0,92,0.00,,,0.00,Wunderground v.1.13,2013-01-10 08:59:00,
2013-01-10 03:29:00,23.2,21.2,30.49,NW,315,0.0,-999.0,92,0.00,,,0.00,Wunderground v.1.13,2013-01-10 09:29:00,
2013-01-10 03:59:00,22.8,21.1,30.49,NW,315,0.0,-999.0,93,0.00,,,0.00,Wunderground v.1.13,2013-01-10 09:59:00,
2013-01-10 04:29:00,22.5,20.8,30.48,NW,316,0.0,-999.0,93,0.00,,,0.00,Wunderground v.1.13,2013-01-10 10:29:00,
2013-01-10 04:59:00,21.6,19.9,30.49,NW,316,0.0,-999.0,93,0.00,,,0.00,Wunderground v.1.13,2013-01-10 10:59:00,
2013-01-10 05:29:00,20.8,19.1,30.49,NW,316,0.0,-999.0,93,0.00,,,0.00,Wunderground v.1.13,2013-01-10 11:29:00,
2013-01-10 05:59:00,21.9,20.4,30.50,NW,316,0.0,-999.0,94,0.00,,,0.00,Wunderground v.1.13,2013-01-10 11:59:00,
2013-01-10 06:29:00,20.6,19.1,30.50,NW,316,0.0,-999.0,94,0.00,,,0.00,Wunderground v.1.13,2013-01-10 12:29:00,
2013-01-10 06:59:00,25.7,24.7,30.50,West,267,0.0,-999.0,96,0.00,,,0.00,Wunderground v.1.13,2013-01-10 12:59:00,
2013-01-10 07:29:00,28.7,27.2,30.50,WSW,245,3.0,-999.0,94,0.00,,,0.00,Wunderground v.1.13,2013-01-10 13:29:00,
2013-01-10 07:59:00,27.9,26.1,30.49,WSW,245,0.0,-999.0,93,0.00,,,0.00,Wunderground v.1.13,2013-01-10 13:59:00,
2013-01-10 08:29:00,29.6,27.8,30.48,WSW,245,0.0,-999.0,93,0.00,,,0.00,Wunderground v.1.13,2013-01-10 14:29:00,
2013-01-10 08:59:00,31.7,28.8,30.47,WSW,245,0.0,-999.0,89,0.00,,,0.00,Wunderground v.1.13,2013-01-10 14:59:00,
2013-01-10 09:29:00,33.2,28.3,30.47,SSW,211,4.0,-999.0,82,0.00,,,0.00,Wunderground v.1.13,2013-01-10 15:29:00,
2013-01-10 09:59:00,34.9,29.0,30.46,South,187,3.0,-999.0,79,0.00,,,0.00,Wunderground v.1.13,2013-01-10 15:59:00,
2013-01-10 10:29:00,35.0,28.5,30.45,South,184,4.0,-999.0,77,0.00,,,0.00,Wunderground v.1.13,2013-01-10 16:29:00,
2013-01-10 10:59:00,35.7,29.2,30.43,South,190,5.0,-999.0,77,0.00,,,0.00,Wunderground v.1.13,2013-01-10 16:59:00,
2013-01-10 11:29:00,35.9,28.7,30.41,SSW,213,5.0,-999.0,75,0.00,,,0.00,Wunderground v.1.13,2013-01-10 17:29:00,
2013-01-10 11:59:00,36.6,30.7,30.39,SSW,200,5.0,-999.0,79,0.00,,,0.00,Wunderground v.1.13,2013-01-10 17:59:00,
2013-01-10 12:29:00,37.2,32.2,30.38,South,178,5.0,-999.0,82,0.00,,,0.00,Wunderground v.1.13,2013-01-10 18:29:00,
2013-01-10 12:59:00,37.9,33.2,30.36,SSE,148,5.0,-999.0,83,0.00,,,0.00,Wunderground v.1.13,2013-01-10 18:59:00,
2013-01-10 13:29:00,38.5,34.7,30.34,South,179,6.0,-999.0,86,0.00,,,0.00,Wunderground v.1.13,2013-01-10 19:29:00,
2013-01-10 13:59:00,38.4,35.2,30.33,South,191,4.0,-999.0,88,0.00,,,0.00,Wunderground v.1.13,2013-01-10 19:59:00,
2013-01-10 14:29:00,38.2,35.0,30.31,South,171,2.0,-999.0,88,0.00,,,0.00,Wunderground v.1.13,2013-01-10 20:29:00,
2013-01-10 14:59:00,37.8,34.8,30.31,SSE,155,2.0,-999.0,89,0.00,,,0.00,Wunderground v.1.13,2013-01-10 20:59:00,
2013-01-10 15:29:00,37.5,34.6,30.31,SSE,168,2.0,-999.0,89,0.00,,,0.00,Wunderground v.1.13,2013-01-10 21:29:00,
2013-01-10 15:59:00,36.9,34.2,30.31,SSE,161,2.0,-999.0,90,0.00,,,0.00,Wunderground v.1.13,2013-01-10 21:59:00,
2013-01-10 16:29:00,36.5,33.0,30.31,South,178,1.0,-999.0,87,0.00,,,0.00,Wunderground v.1.13,2013-01-10 22:29:00,
2013-01-10 16:59:00,36.1,32.3,30.29,South,179,0.0,-999.0,86,0.00,,,0.00,Wunderground v.1.13,2013-01-10 22:59:00,
2013-01-10 17:29:00,35.7,32.5,30.27,South,179,0.0,-999.0,88,0.00,,,0.00,Wunderground v.1.13,2013-01-10 23:29:00,
2013-01-10 17:59:00,36.0,32.2,30.26,South,179,0.0,-999.0,86,0.00,,,0.00,Wunderground v.1.13,2013-01-10 23:59:00,
2013-01-10 18:29:00,36.9,32.8,30.23,South,176,0.0,-999.0,85,0.00,,,0.00,Wunderground v.1.13,2013-01-11 00:29:00,
2013-01-10 18:59:00,37.6,33.2,30.20,SSE,159,1.0,-999.0,84,0.00,,,0.00,Wunderground v.1.13,2013-01-11 00:59:00,
2013-01-10 19:29:00,38.0,33.6,30.18,SE,124,3.0,-999.0,84,0.00,,,0.00,Wunderground v.1.13,2013-01-11 01:29:00,
2013-01-10 19:59:00,37.8,33.4,30.17,SE,125,2.0,-999.0,84,0.00,,,0.00,Wunderground v.1.13,2013-01-11 01:59:00,
2013-01-10 20:29:00,39.3,32.4,30.15,SE,142,4.0,-999.0,76,0.00,,,0.00,Wunderground v.1.13,2013-01-11 02:29:00,
2013-01-10 20:59:00,39.1,32.5,30.12,SE,142,3.0,-999.0,77,0.00,,,0.00,Wunderground v.1.13,2013-01-11 02:59:00,
2013-01-10 21:29:00,38.2,33.2,30.09,SSE,147,3.0,-999.0,82,0.00,,,0.00,Wunderground v.1.13,2013-01-11 03:29:00,
2013-01-10 21:59:00,37.5,33.7,30.06,SE,139,4.0,-999.0,86,0.00,,,0.00,Wunderground v.1.13,2013-01-11 03:59:00,
2013-01-10 22:29:00,37.2,34.0,30.04,SE,134,4.0,-999.0,88,0.00,,,0.00,Wunderground v.1.13,2013-01-11 04:29:00,
2013-01-10 22:59:00,37.0,34.1,30.01,ESE,117,4.0,-999.0,89,0.00,,,0.00,Wunderground v.1.13,2013-01-11 04:59:00,
2013-01-10 23:29:00,36.3,33.9,30.00,SE,137,5.0,-999.0,91,0.09,,,0.04,Wunderground v.1.13,2013-01-11 05:29:00,
2013-01-10 23:59:00,35.8,34.2,29.98,South,169,5.0,-999.0,94,0.05,,,0.07,Wunderground v.1.13,2013-01-11 05:59:00,